Year,Month,Day,Hour,Minute,Value (Times are PST for windspeed in km/hr)
2005,11,05,00,00,0.00
2005,11,05,00,01,0.00
2005,11,05,00,02,1.20
2005,11,05,00,03,0.90
2005,11,05,00,04,2.00
2005,11,05,00,05,2.60
2005,11,05,00,06,2.70
2005,11,05,00,07,2.50
2005,11,05,00,08,1.90
2005,11,05,00,09,1.90
2005,11,05,00,10,3.10
2005,11,05,00,11,4.30
2005,11,05,00,12,3.90
2005,11,05,00,13,4.70
2005,11,05,00,14,2.30
2005,11,05,00,15,4.10
2005,11,05,00,16,5.30
2005,11,05,00,17,3.40
2005,11,05,00,18,3.00
2005,11,05,00,19,3.00
2005,11,05,00,20,3.90
2005,11,05,00,21,3.50
2005,11,05,00,22,3.80
2005,11,05,00,23,3.30
2005,11,05,00,24,4.90
2005,11,05,00,25,3.60
2005,11,05,00,26,3.50
2005,11,05,00,27,2.80
2005,11,05,00,28,4.10
2005,11,05,00,29,2.70
2005,11,05,00,30,3.40
2005,11,05,00,31,3.20
2005,11,05,00,32,3.20
2005,11,05,00,33,2.60
2005,11,05,00,34,0.90
2005,11,05,00,35,2.30
2005,11,05,00,36,1.10
2005,11,05,00,37,2.00
2005,11,05,00,38,0.60
2005,11,05,00,39,0.00
2005,11,05,00,40,0.90
2005,11,05,00,41,1.20
2005,11,05,00,42,0.00
2005,11,05,00,43,0.00
2005,11,05,00,44,0.20
2005,11,05,00,45,0.60
2005,11,05,00,46,0.30
2005,11,05,00,47,0.20
2005,11,05,00,48,0.00
2005,11,05,00,49,0.00
2005,11,05,00,50,0.00
2005,11,05,00,51,1.00
2005,11,05,00,52,1.20
2005,11,05,00,53,0.10
2005,11,05,00,54,0.00
2005,11,05,00,55,0.10
2005,11,05,00,56,0.00
2005,11,05,00,57,0.00
2005,11,05,00,58,0.00
2005,11,05,00,59,0.00
2005,11,05,01,00,0.00
2005,11,05,01,01,0.00
2005,11,05,01,02,0.00
2005,11,05,01,03,0.00
2005,11,05,01,04,0.00
2005,11,05,01,05,0.20
2005,11,05,01,06,3.00
2005,11,05,01,07,6.00
2005,11,05,01,08,6.10
2005,11,05,01,09,4.30
2005,11,05,01,10,3.30
2005,11,05,01,11,3.30
2005,11,05,01,12,2.60
2005,11,05,01,13,2.30
2005,11,05,01,14,1.60
2005,11,05,01,15,0.60
2005,11,05,01,16,0.00
2005,11,05,01,17,0.10
2005,11,05,01,18,1.60
2005,11,05,01,19,0.60
2005,11,05,01,20,0.50
2005,11,05,01,21,0.20
2005,11,05,01,22,0.00
2005,11,05,01,23,0.00
2005,11,05,01,24,0.00
2005,11,05,01,25,0.00
2005,11,05,01,26,0.00
2005,11,05,01,27,0.00
2005,11,05,01,28,0.20
2005,11,05,01,29,0.00
2005,11,05,01,30,0.00
2005,11,05,01,31,0.00
2005,11,05,01,32,0.00
2005,11,05,01,33,0.20
2005,11,05,01,34,1.70
2005,11,05,01,35,2.10
2005,11,05,01,36,1.40
2005,11,05,01,37,2.50
2005,11,05,01,38,2.50
2005,11,05,01,39,1.70
2005,11,05,01,40,1.90
2005,11,05,01,41,0.20
2005,11,05,01,42,0.10
2005,11,05,01,43,1.70
2005,11,05,01,44,0.60
2005,11,05,01,45,2.20
2005,11,05,01,46,1.00
2005,11,05,01,47,0.20
2005,11,05,01,48,0.20
2005,11,05,01,49,1.00
2005,11,05,01,50,0.00
2005,11,05,01,51,0.00
2005,11,05,01,52,0.00
2005,11,05,01,53,0.00
2005,11,05,01,54,0.00
2005,11,05,01,55,0.00
2005,11,05,01,56,0.00
2005,11,05,01,57,0.10
2005,11,05,01,58,0.00
2005,11,05,01,59,0.60
2005,11,05,02,00,0.00
2005,11,05,02,01,0.00
2005,11,05,02,02,0.00
2005,11,05,02,03,0.00
2005,11,05,02,04,0.00
2005,11,05,02,05,0.00
2005,11,05,02,06,0.00
2005,11,05,02,07,0.00
2005,11,05,02,08,0.00
2005,11,05,02,09,0.00
2005,11,05,02,10,1.50
2005,11,05,02,11,1.60
2005,11,05,02,12,1.60
2005,11,05,02,13,1.40
2005,11,05,02,14,0.00
2005,11,05,02,15,0.00
2005,11,05,02,16,0.00
2005,11,05,02,17,0.00
2005,11,05,02,18,0.00
2005,11,05,02,19,0.00
2005,11,05,02,20,0.00
2005,11,05,02,21,0.00
2005,11,05,02,22,0.00
2005,11,05,02,23,0.00
2005,11,05,02,24,0.00
2005,11,05,02,25,0.00
2005,11,05,02,26,1.00
2005,11,05,02,27,1.70
2005,11,05,02,28,1.00
2005,11,05,02,29,0.00
2005,11,05,02,30,0.00
2005,11,05,02,31,0.00
2005,11,05,02,32,0.00
2005,11,05,02,33,1.10
2005,11,05,02,34,0.30
2005,11,05,02,35,0.90
2005,11,05,02,36,1.10
2005,11,05,02,37,0.60
2005,11,05,02,38,1.10
2005,11,05,02,39,1.90
2005,11,05,02,40,1.40
2005,11,05,02,41,0.40
2005,11,05,02,42,0.00
2005,11,05,02,43,0.00
2005,11,05,02,44,0.00
2005,11,05,02,45,0.00
2005,11,05,02,46,0.00
2005,11,05,02,47,0.00
2005,11,05,02,48,0.00
2005,11,05,02,49,0.10
2005,11,05,02,50,0.20
2005,11,05,02,51,0.00
2005,11,05,02,52,0.10
2005,11,05,02,53,0.10
2005,11,05,02,54,0.00
2005,11,05,02,55,0.00
2005,11,05,02,56,0.00
2005,11,05,02,57,0.00
2005,11,05,02,58,0.00
2005,11,05,02,59,0.00
2005,11,05,03,00,0.00
2005,11,05,03,01,0.00
2005,11,05,03,02,0.10
2005,11,05,03,03,0.00
2005,11,05,03,04,0.00
2005,11,05,03,05,0.40
2005,11,05,03,06,0.00
2005,11,05,03,07,0.10
2005,11,05,03,08,0.90
2005,11,05,03,09,0.20
2005,11,05,03,10,0.10
2005,11,05,03,11,1.90
2005,11,05,03,12,3.50
2005,11,05,03,13,3.90
2005,11,05,03,14,3.80
2005,11,05,03,15,4.10
2005,11,05,03,16,2.30
2005,11,05,03,17,0.50
2005,11,05,03,18,0.60
2005,11,05,03,19,1.50
2005,11,05,03,20,2.10
2005,11,05,03,21,0.10
2005,11,05,03,22,0.20
2005,11,05,03,23,1.00
2005,11,05,03,24,5.20
2005,11,05,03,25,1.20
2005,11,05,03,26,1.20
2005,11,05,03,27,1.10
2005,11,05,03,28,2.00
2005,11,05,03,29,2.10
2005,11,05,03,30,0.80
2005,11,05,03,31,0.80
2005,11,05,03,32,0.40
2005,11,05,03,33,2.00
2005,11,05,03,34,1.80
2005,11,05,03,35,1.10
2005,11,05,03,36,2.00
2005,11,05,03,37,1.20
2005,11,05,03,38,2.70
2005,11,05,03,39,0.00
2005,11,05,03,40,1.10
2005,11,05,03,41,2.10
2005,11,05,03,42,2.70
2005,11,05,03,43,1.80
2005,11,05,03,44,0.90
2005,11,05,03,45,0.60
2005,11,05,03,46,0.10
2005,11,05,03,47,0.20
2005,11,05,03,48,4.40
2005,11,05,03,49,4.80
2005,11,05,03,50,4.80
2005,11,05,03,51,4.90
2005,11,05,03,52,6.50
2005,11,05,03,53,8.00
2005,11,05,03,54,7.00
2005,11,05,03,55,4.60
2005,11,05,03,56,3.60
2005,11,05,03,57,1.70
2005,11,05,03,58,0.20
2005,11,05,03,59,2.90
2005,11,05,04,00,2.30
2005,11,05,04,01,2.90
2005,11,05,04,02,4.10
2005,11,05,04,03,2.00
2005,11,05,04,04,0.40
2005,11,05,04,05,2.00
2005,11,05,04,06,0.50
2005,11,05,04,07,0.00
2005,11,05,04,08,0.00
2005,11,05,04,09,0.00
2005,11,05,04,10,1.50
2005,11,05,04,11,2.70
2005,11,05,04,12,2.40
2005,11,05,04,13,2.00
2005,11,05,04,14,1.50
2005,11,05,04,15,0.20
2005,11,05,04,16,1.30
2005,11,05,04,17,1.10
2005,11,05,04,18,1.10
2005,11,05,04,19,0.80
2005,11,05,04,20,1.10
2005,11,05,04,21,1.70
2005,11,05,04,22,0.60
2005,11,05,04,23,1.50
2005,11,05,04,24,0.80
2005,11,05,04,25,1.70
2005,11,05,04,26,2.30
2005,11,05,04,27,1.90
2005,11,05,04,28,1.90
2005,11,05,04,29,2.60
2005,11,05,04,30,2.40
2005,11,05,04,31,1.90
2005,11,05,04,32,0.00
2005,11,05,04,33,0.00
2005,11,05,04,34,0.00
2005,11,05,04,35,0.00
2005,11,05,04,36,0.00
2005,11,05,04,37,0.00
2005,11,05,04,38,1.00
2005,11,05,04,39,3.80
2005,11,05,04,40,4.20
2005,11,05,04,41,3.40
2005,11,05,04,42,2.90
2005,11,05,04,43,2.20
2005,11,05,04,44,2.00
2005,11,05,04,45,2.10
2005,11,05,04,46,0.70
2005,11,05,04,47,0.80
2005,11,05,04,48,1.20
2005,11,05,04,49,1.40
2005,11,05,04,50,0.20
2005,11,05,04,51,0.00
2005,11,05,04,52,0.20
2005,11,05,04,53,0.30
2005,11,05,04,54,1.60
2005,11,05,04,55,2.00
2005,11,05,04,56,1.70
2005,11,05,04,57,1.40
2005,11,05,04,58,1.40
2005,11,05,04,59,3.10
2005,11,05,05,00,3.10
2005,11,05,05,01,1.00
2005,11,05,05,02,1.00
2005,11,05,05,03,1.60
2005,11,05,05,04,1.40
2005,11,05,05,05,3.10
2005,11,05,05,06,2.00
2005,11,05,05,07,0.40
2005,11,05,05,08,0.40
2005,11,05,05,09,0.10
2005,11,05,05,10,1.00
2005,11,05,05,11,1.30
2005,11,05,05,12,1.10
2005,11,05,05,13,0.10
2005,11,05,05,14,0.20
2005,11,05,05,15,0.00
2005,11,05,05,16,0.20
2005,11,05,05,17,0.30
2005,11,05,05,18,0.00
2005,11,05,05,19,0.10
2005,11,05,05,20,0.70
2005,11,05,05,21,0.70
2005,11,05,05,22,0.00
2005,11,05,05,23,0.00
2005,11,05,05,24,0.20
2005,11,05,05,25,0.00
2005,11,05,05,26,0.00
2005,11,05,05,27,0.00
2005,11,05,05,28,0.00
2005,11,05,05,29,0.00
2005,11,05,05,30,0.00
2005,11,05,05,31,0.00
2005,11,05,05,32,0.60
2005,11,05,05,33,0.00
2005,11,05,05,34,0.00
2005,11,05,05,35,0.00
2005,11,05,05,36,0.30
2005,11,05,05,37,0.00
2005,11,05,05,38,0.00
2005,11,05,05,39,0.00
2005,11,05,05,40,0.00
2005,11,05,05,41,0.00
2005,11,05,05,42,0.00
2005,11,05,05,43,0.20
2005,11,05,05,44,3.70
2005,11,05,05,45,5.00
2005,11,05,05,46,1.20
2005,11,05,05,47,1.20
2005,11,05,05,48,0.60
2005,11,05,05,49,0.00
2005,11,05,05,50,0.00
2005,11,05,05,51,1.60
2005,11,05,05,52,4.00
2005,11,05,05,53,3.30
2005,11,05,05,54,4.30
2005,11,05,05,55,3.90
2005,11,05,05,56,3.20
2005,11,05,05,57,3.20
2005,11,05,05,58,4.70
2005,11,05,05,59,2.80
2005,11,05,06,00,3.80
2005,11,05,06,01,3.30
2005,11,05,06,02,3.90
2005,11,05,06,03,2.70
2005,11,05,06,04,2.60
2005,11,05,06,05,2.30
2005,11,05,06,06,2.80
2005,11,05,06,07,3.00
2005,11,05,06,08,3.70
2005,11,05,06,09,2.60
2005,11,05,06,10,1.30
2005,11,05,06,11,2.60
2005,11,05,06,12,3.30
2005,11,05,06,13,2.30
2005,11,05,06,14,3.10
2005,11,05,06,15,3.60
2005,11,05,06,16,4.40
2005,11,05,06,17,4.70
2005,11,05,06,18,5.30
2005,11,05,06,19,5.00
2005,11,05,06,20,6.20
2005,11,05,06,21,4.80
2005,11,05,06,22,5.80
2005,11,05,06,23,4.60
2005,11,05,06,24,6.70
2005,11,05,06,25,4.80
2005,11,05,06,26,5.50
2005,11,05,06,27,6.60
2005,11,05,06,28,5.80
2005,11,05,06,29,4.90
2005,11,05,06,30,5.80
2005,11,05,06,31,5.50
2005,11,05,06,32,6.10
2005,11,05,06,33,4.10
2005,11,05,06,34,4.70
2005,11,05,06,35,4.80
2005,11,05,06,36,2.80
2005,11,05,06,37,3.30
2005,11,05,06,38,3.20
2005,11,05,06,39,3.20
2005,11,05,06,40,3.90
2005,11,05,06,41,2.80
2005,11,05,06,42,4.30
2005,11,05,06,43,6.20
2005,11,05,06,44,5.70
2005,11,05,06,45,3.80
2005,11,05,06,46,4.60
2005,11,05,06,47,5.00
2005,11,05,06,48,5.50
2005,11,05,06,49,4.70
2005,11,05,06,50,4.80
2005,11,05,06,51,4.70
2005,11,05,06,52,6.00
2005,11,05,06,53,5.70
2005,11,05,06,54,5.40
2005,11,05,06,55,4.30
2005,11,05,06,56,5.50
2005,11,05,06,57,4.10
2005,11,05,06,58,3.40
2005,11,05,06,59,4.80
2005,11,05,07,00,5.40
2005,11,05,07,01,3.00
2005,11,05,07,02,3.40
2005,11,05,07,03,6.50
2005,11,05,07,04,5.20
2005,11,05,07,05,3.50
2005,11,05,07,06,4.60
2005,11,05,07,07,4.00
2005,11,05,07,08,5.70
2005,11,05,07,09,5.70
2005,11,05,07,10,4.00
2005,11,05,07,11,5.80
2005,11,05,07,12,4.20
2005,11,05,07,13,4.50
2005,11,05,07,14,5.10
2005,11,05,07,15,6.40
2005,11,05,07,16,1.90
2005,11,05,07,17,1.60
2005,11,05,07,18,6.50
2005,11,05,07,19,4.20
2005,11,05,07,20,4.10
2005,11,05,07,21,3.10
2005,11,05,07,22,3.20
2005,11,05,07,23,4.30
2005,11,05,07,24,3.90
2005,11,05,07,25,5.20
2005,11,05,07,26,4.40
2005,11,05,07,27,2.70
2005,11,05,07,28,4.80
2005,11,05,07,29,5.00
2005,11,05,07,30,2.50
2005,11,05,07,31,1.00
2005,11,05,07,32,4.70
2005,11,05,07,33,4.50
2005,11,05,07,34,6.80
2005,11,05,07,35,4.80
2005,11,05,07,36,6.40
2005,11,05,07,37,6.40
2005,11,05,07,38,6.40
2005,11,05,07,39,6.80
2005,11,05,07,40,3.90
2005,11,05,07,41,4.30
2005,11,05,07,42,4.90
2005,11,05,07,43,6.80
2005,11,05,07,44,5.60
2005,11,05,07,45,6.10
2005,11,05,07,46,5.10
2005,11,05,07,47,4.40
2005,11,05,07,48,4.50
2005,11,05,07,49,3.90
2005,11,05,07,50,2.40
2005,11,05,07,51,2.70
2005,11,05,07,52,7.50
2005,11,05,07,53,4.70
2005,11,05,07,54,5.10
2005,11,05,07,55,4.00
2005,11,05,07,56,4.40
2005,11,05,07,57,4.50
2005,11,05,07,58,7.10
2005,11,05,07,59,8.70
2005,11,05,08,00,5.80
2005,11,05,08,01,6.10
2005,11,05,08,02,5.80
2005,11,05,08,03,6.90
2005,11,05,08,04,8.60
2005,11,05,08,05,8.40
2005,11,05,08,06,7.60
2005,11,05,08,07,9.70
2005,11,05,08,08,5.60
2005,11,05,08,09,6.30
2005,11,05,08,10,5.60
2005,11,05,08,11,7.00
2005,11,05,08,12,5.80
2005,11,05,08,13,5.60
2005,11,05,08,14,9.00
2005,11,05,08,15,8.90
2005,11,05,08,16,9.20
2005,11,05,08,17,13.00
2005,11,05,08,18,8.50
2005,11,05,08,19,6.50
2005,11,05,08,20,11.20
2005,11,05,08,21,6.40
2005,11,05,08,22,7.60
2005,11,05,08,23,11.20
2005,11,05,08,24,10.60
2005,11,05,08,25,7.90
2005,11,05,08,26,9.30
2005,11,05,08,27,8.20
2005,11,05,08,28,8.50
2005,11,05,08,29,7.90
2005,11,05,08,30,7.90
2005,11,05,08,31,9.10
2005,11,05,08,32,5.30
2005,11,05,08,33,8.50
2005,11,05,08,34,8.10
2005,11,05,08,35,6.90
2005,11,05,08,36,7.00
2005,11,05,08,37,6.70
2005,11,05,08,38,11.30
2005,11,05,08,39,11.90
2005,11,05,08,40,6.60
2005,11,05,08,41,6.40
2005,11,05,08,42,6.80
2005,11,05,08,43,12.40
2005,11,05,08,44,13.60
2005,11,05,08,45,9.70
2005,11,05,08,46,9.30
2005,11,05,08,47,8.10
2005,11,05,08,48,9.80
2005,11,05,08,49,14.40
2005,11,05,08,50,11.80
2005,11,05,08,51,11.90
2005,11,05,08,52,10.00
2005,11,05,08,53,11.70
2005,11,05,08,54,8.80
2005,11,05,08,55,8.40
2005,11,05,08,56,11.20
2005,11,05,08,57,14.70
2005,11,05,08,58,12.70
2005,11,05,08,59,11.50
2005,11,05,09,00,13.70
2005,11,05,09,01,17.00
2005,11,05,09,02,11.00
2005,11,05,09,03,12.30
2005,11,05,09,04,11.30
2005,11,05,09,05,13.60
2005,11,05,09,06,13.00
2005,11,05,09,07,10.20
2005,11,05,09,08,9.60
2005,11,05,09,09,9.80
2005,11,05,09,10,12.50
2005,11,05,09,11,12.40
2005,11,05,09,12,15.40
2005,11,05,09,13,13.50
2005,11,05,09,14,15.00
2005,11,05,09,15,8.30
2005,11,05,09,16,12.10
2005,11,05,09,17,14.70
2005,11,05,09,18,9.10
2005,11,05,09,19,7.90
2005,11,05,09,20,10.00
2005,11,05,09,21,11.70
2005,11,05,09,22,11.50
2005,11,05,09,23,13.90
2005,11,05,09,24,11.50
2005,11,05,09,25,12.70
2005,11,05,09,26,12.20
2005,11,05,09,27,10.50
2005,11,05,09,28,10.30
2005,11,05,09,29,14.40
2005,11,05,09,30,9.70
2005,11,05,09,31,14.30
2005,11,05,09,32,14.50
2005,11,05,09,33,14.50
2005,11,05,09,34,14.50
2005,11,05,09,35,12.90
2005,11,05,09,36,10.00
2005,11,05,09,37,9.20
2005,11,05,09,38,10.40
2005,11,05,09,39,9.70
2005,11,05,09,40,11.70
2005,11,05,09,41,7.30
2005,11,05,09,42,8.20
2005,11,05,09,43,13.40
2005,11,05,09,44,10.40
2005,11,05,09,45,12.60
2005,11,05,09,46,9.00
2005,11,05,09,47,12.60
2005,11,05,09,48,14.20
2005,11,05,09,49,8.50
2005,11,05,09,50,12.50
2005,11,05,09,51,10.70
2005,11,05,09,52,12.40
2005,11,05,09,53,12.10
2005,11,05,09,54,9.80
2005,11,05,09,55,12.70
2005,11,05,09,56,12.90
2005,11,05,09,57,9.20
2005,11,05,09,58,10.70
2005,11,05,09,59,11.40
2005,11,05,10,00,15.30
2005,11,05,10,01,15.20
2005,11,05,10,02,12.00
2005,11,05,10,03,11.90
2005,11,05,10,04,7.90
2005,11,05,10,05,8.10
2005,11,05,10,06,14.30
2005,11,05,10,07,12.20
2005,11,05,10,08,9.10
2005,11,05,10,09,12.50
2005,11,05,10,10,10.90
2005,11,05,10,11,16.30
2005,11,05,10,12,12.80
2005,11,05,10,13,9.20
2005,11,05,10,14,15.20
2005,11,05,10,15,14.50
2005,11,05,10,16,15.00
2005,11,05,10,17,14.10
2005,11,05,10,18,14.00
2005,11,05,10,19,10.80
2005,11,05,10,20,10.50
2005,11,05,10,21,17.30
2005,11,05,10,22,20.50
2005,11,05,10,23,15.50
2005,11,05,10,24,13.50
2005,11,05,10,25,17.90
2005,11,05,10,26,12.50
2005,11,05,10,27,17.50
2005,11,05,10,28,16.30
2005,11,05,10,29,19.80
2005,11,05,10,30,11.70
2005,11,05,10,31,14.50
2005,11,05,10,32,16.60
2005,11,05,10,33,15.80
2005,11,05,10,34,15.80
2005,11,05,10,35,10.10
2005,11,05,10,36,15.10
2005,11,05,10,37,12.70
2005,11,05,10,38,16.10
2005,11,05,10,39,12.90
2005,11,05,10,40,14.10
2005,11,05,10,41,11.80
2005,11,05,10,42,16.90
2005,11,05,10,43,12.20
2005,11,05,10,44,11.10
2005,11,05,10,45,13.30
2005,11,05,10,46,12.00
2005,11,05,10,47,15.70
2005,11,05,10,48,13.60
2005,11,05,10,49,15.50
2005,11,05,10,50,18.80
2005,11,05,10,51,13.20
2005,11,05,10,52,12.40
2005,11,05,10,53,14.50
2005,11,05,10,54,13.20
2005,11,05,10,55,14.50
2005,11,05,10,56,13.90
2005,11,05,10,57,14.10
2005,11,05,10,58,14.60
2005,11,05,10,59,13.00
2005,11,05,11,00,15.80
2005,11,05,11,01,14.70
2005,11,05,11,02,15.10
2005,11,05,11,03,10.50
2005,11,05,11,04,11.70
2005,11,05,11,05,15.90
2005,11,05,11,06,18.70
2005,11,05,11,07,13.40
2005,11,05,11,08,14.80
2005,11,05,11,09,13.60
2005,11,05,11,10,12.80
2005,11,05,11,11,11.80
2005,11,05,11,12,11.30
2005,11,05,11,13,10.90
2005,11,05,11,14,16.60
2005,11,05,11,15,19.30
2005,11,05,11,16,17.30
2005,11,05,11,17,17.20
2005,11,05,11,18,15.90
2005,11,05,11,19,15.60
2005,11,05,11,20,13.60
2005,11,05,11,21,11.10
2005,11,05,11,22,17.20
2005,11,05,11,23,18.50
2005,11,05,11,24,13.90
2005,11,05,11,25,9.70
2005,11,05,11,26,13.20
2005,11,05,11,27,17.50
2005,11,05,11,28,16.30
2005,11,05,11,29,17.50
2005,11,05,11,30,13.70
2005,11,05,11,31,15.30
2005,11,05,11,32,20.00
2005,11,05,11,33,18.20
2005,11,05,11,34,21.40
2005,11,05,11,35,12.60
2005,11,05,11,36,17.10
2005,11,05,11,37,14.70
2005,11,05,11,38,12.60
2005,11,05,11,39,20.20
2005,11,05,11,40,13.30
2005,11,05,11,41,18.70
2005,11,05,11,42,18.00
2005,11,05,11,43,17.10
2005,11,05,11,44,14.50
2005,11,05,11,45,15.90
2005,11,05,11,46,13.20
2005,11,05,11,47,16.90
2005,11,05,11,48,15.50
2005,11,05,11,49,13.40
2005,11,05,11,50,13.70
2005,11,05,11,51,18.70
2005,11,05,11,52,15.50
2005,11,05,11,53,13.50
2005,11,05,11,54,16.70
2005,11,05,11,55,19.20
2005,11,05,11,56,14.50
2005,11,05,11,57,15.70
2005,11,05,11,58,20.20
2005,11,05,11,59,16.80
2005,11,05,12,00,10.30
2005,11,05,12,01,15.90
2005,11,05,12,02,16.70
2005,11,05,12,03,15.80
2005,11,05,12,04,20.90
2005,11,05,12,05,19.10
2005,11,05,12,06,19.40
2005,11,05,12,07,19.30
2005,11,05,12,08,14.40
2005,11,05,12,09,14.00
2005,11,05,12,10,13.80
2005,11,05,12,11,15.40
2005,11,05,12,12,14.10
2005,11,05,12,13,20.60
2005,11,05,12,14,17.60
2005,11,05,12,15,20.00
2005,11,05,12,16,18.20
2005,11,05,12,17,17.80
2005,11,05,12,18,21.40
2005,11,05,12,19,20.00
2005,11,05,12,20,23.10
2005,11,05,12,21,23.10
2005,11,05,12,22,20.90
2005,11,05,12,23,19.10
2005,11,05,12,24,20.40
2005,11,05,12,25,13.70
2005,11,05,12,26,11.80
2005,11,05,12,27,20.50
2005,11,05,12,28,17.50
2005,11,05,12,29,17.50
2005,11,05,12,30,15.40
2005,11,05,12,31,19.10
2005,11,05,12,32,16.70
2005,11,05,12,33,15.90
2005,11,05,12,34,14.10
2005,11,05,12,35,14.60
2005,11,05,12,36,18.80
2005,11,05,12,37,16.30
2005,11,05,12,38,17.50
2005,11,05,12,39,16.80
2005,11,05,12,40,14.50
2005,11,05,12,41,12.90
2005,11,05,12,42,13.10
2005,11,05,12,43,17.30
2005,11,05,12,44,24.90
2005,11,05,12,45,20.20
2005,11,05,12,46,16.70
2005,11,05,12,47,16.20
2005,11,05,12,48,16.50
2005,11,05,12,49,17.90
2005,11,05,12,50,15.40
2005,11,05,12,51,19.90
2005,11,05,12,52,14.70
2005,11,05,12,53,18.50
2005,11,05,12,54,15.80
2005,11,05,12,55,12.90
2005,11,05,12,56,13.10
2005,11,05,12,57,18.50
2005,11,05,12,58,17.50
2005,11,05,12,59,16.80
2005,11,05,13,00,18.50
2005,11,05,13,01,22.40
2005,11,05,13,02,21.30
2005,11,05,13,03,17.70
2005,11,05,13,04,17.70
2005,11,05,13,05,19.60
2005,11,05,13,06,23.30
2005,11,05,13,07,15.00
2005,11,05,13,08,19.70
2005,11,05,13,09,17.50
2005,11,05,13,10,17.40
2005,11,05,13,11,17.40
2005,11,05,13,12,18.70
2005,11,05,13,13,16.10
2005,11,05,13,14,13.60
2005,11,05,13,15,14.40
2005,11,05,13,16,19.90
2005,11,05,13,17,17.20
2005,11,05,13,18,25.40
2005,11,05,13,19,17.00
2005,11,05,13,20,17.10
2005,11,05,13,21,15.60
2005,11,05,13,22,18.60
2005,11,05,13,23,13.20
2005,11,05,13,24,22.00
2005,11,05,13,25,20.40
2005,11,05,13,26,18.90
2005,11,05,13,27,20.10
2005,11,05,13,28,23.70
2005,11,05,13,29,19.30
2005,11,05,13,30,19.70
2005,11,05,13,31,20.20
2005,11,05,13,32,23.50
2005,11,05,13,33,21.20
2005,11,05,13,34,19.40
2005,11,05,13,35,15.00
2005,11,05,13,36,21.60
2005,11,05,13,37,20.40
2005,11,05,13,38,20.40
2005,11,05,13,39,16.90
2005,11,05,13,40,21.90
2005,11,05,13,41,20.80
2005,11,05,13,42,18.10
2005,11,05,13,43,21.20
2005,11,05,13,44,16.30
2005,11,05,13,45,14.00
2005,11,05,13,46,18.80
2005,11,05,13,47,19.00
2005,11,05,13,48,23.40
2005,11,05,13,49,19.90
2005,11,05,13,50,17.40
2005,11,05,13,51,17.40
2005,11,05,13,52,15.90
2005,11,05,13,53,22.80
2005,11,05,13,54,18.80
2005,11,05,13,55,20.50
2005,11,05,13,56,17.30
2005,11,05,13,57,12.50
2005,11,05,13,58,11.30
2005,11,05,13,59,18.20
2005,11,05,14,00,22.80
2005,11,05,14,01,21.20
2005,11,05,14,02,25.70
2005,11,05,14,03,25.70
2005,11,05,14,04,20.00
2005,11,05,14,05,20.20
2005,11,05,14,06,21.50
2005,11,05,14,07,20.20
2005,11,05,14,08,20.90
2005,11,05,14,09,21.70
2005,11,05,14,10,16.10
2005,11,05,14,11,17.90
2005,11,05,14,12,15.60
2005,11,05,14,13,15.50
2005,11,05,14,14,14.90
2005,11,05,14,15,23.90
2005,11,05,14,16,17.50
2005,11,05,14,17,15.90
2005,11,05,14,18,19.70
2005,11,05,14,19,17.80
2005,11,05,14,20,13.70
2005,11,05,14,21,16.30
2005,11,05,14,22,16.70
2005,11,05,14,23,21.50
2005,11,05,14,24,20.30
2005,11,05,14,25,19.80
2005,11,05,14,26,23.40
2005,11,05,14,27,20.80
2005,11,05,14,28,17.90
2005,11,05,14,29,15.00
2005,11,05,14,30,19.20
2005,11,05,14,31,14.20
2005,11,05,14,32,16.90
2005,11,05,14,33,16.50
2005,11,05,14,34,20.80
2005,11,05,14,35,17.70
2005,11,05,14,36,21.90
2005,11,05,14,37,19.60
2005,11,05,14,38,18.10
2005,11,05,14,39,22.60
2005,11,05,14,40,19.60
2005,11,05,14,41,21.10
2005,11,05,14,42,17.10
2005,11,05,14,43,22.60
2005,11,05,14,44,20.00
2005,11,05,14,45,19.30
2005,11,05,14,46,17.10
2005,11,05,14,47,16.70
2005,11,05,14,48,17.50
2005,11,05,14,49,17.00
2005,11,05,14,50,16.10
2005,11,05,14,51,23.10
2005,11,05,14,52,16.90
2005,11,05,14,53,14.30
2005,11,05,14,54,16.60
2005,11,05,14,55,17.70
2005,11,05,14,56,18.10
2005,11,05,14,57,18.50
2005,11,05,14,58,18.50
2005,11,05,14,59,18.40
2005,11,05,15,00,21.50
2005,11,05,15,01,14.20
2005,11,05,15,02,20.50
2005,11,05,15,03,17.40
2005,11,05,15,04,14.50
2005,11,05,15,05,16.90
2005,11,05,15,06,19.50
2005,11,05,15,07,15.70
2005,11,05,15,08,13.90
2005,11,05,15,09,13.60
2005,11,05,15,10,15.90
2005,11,05,15,11,18.00
2005,11,05,15,12,12.90
2005,11,05,15,13,15.60
2005,11,05,15,14,12.70
2005,11,05,15,15,14.10
2005,11,05,15,16,19.50
2005,11,05,15,17,18.30
2005,11,05,15,18,18.30
2005,11,05,15,19,14.30
2005,11,05,15,20,17.20
2005,11,05,15,21,16.60
2005,11,05,15,22,22.50
2005,11,05,15,23,23.70
2005,11,05,15,24,18.80
2005,11,05,15,25,17.50
2005,11,05,15,26,19.00
2005,11,05,15,27,16.30
2005,11,05,15,28,19.60
2005,11,05,15,29,17.60
2005,11,05,15,30,14.90
2005,11,05,15,31,21.10
2005,11,05,15,32,23.30
2005,11,05,15,33,19.00
2005,11,05,15,34,16.60
2005,11,05,15,35,19.90
2005,11,05,15,36,16.40
2005,11,05,15,37,13.60
2005,11,05,15,38,23.40
2005,11,05,15,39,19.90
2005,11,05,15,40,19.90
2005,11,05,15,41,16.50
2005,11,05,15,42,18.90
2005,11,05,15,43,23.90
2005,11,05,15,44,23.10
2005,11,05,15,45,18.20
2005,11,05,15,46,18.00
2005,11,05,15,47,22.90
2005,11,05,15,48,19.10
2005,11,05,15,49,17.70
2005,11,05,15,50,20.10
2005,11,05,15,51,23.00
2005,11,05,15,52,18.50
2005,11,05,15,53,15.70
2005,11,05,15,54,15.30
2005,11,05,15,55,14.60
2005,11,05,15,56,16.30
2005,11,05,15,57,14.60
2005,11,05,15,58,12.90
2005,11,05,15,59,12.50
2005,11,05,16,00,14.90
2005,11,05,16,01,13.50
2005,11,05,16,02,11.20
2005,11,05,16,03,17.50
2005,11,05,16,04,15.20
2005,11,05,16,05,17.50
2005,11,05,16,06,15.00
2005,11,05,16,07,14.90
2005,11,05,16,08,13.10
2005,11,05,16,09,13.10
2005,11,05,16,10,19.30
2005,11,05,16,11,16.40
2005,11,05,16,12,14.70
2005,11,05,16,13,18.70
2005,11,05,16,14,19.70
2005,11,05,16,15,22.50
2005,11,05,16,16,18.80
2005,11,05,16,17,17.10
2005,11,05,16,18,16.30
2005,11,05,16,19,18.80
2005,11,05,16,20,22.10
2005,11,05,16,21,17.40
2005,11,05,16,22,20.90
2005,11,05,16,23,17.90
2005,11,05,16,24,14.50
2005,11,05,16,25,13.90
2005,11,05,16,26,15.90
2005,11,05,16,27,16.70
2005,11,05,16,28,18.30
2005,11,05,16,29,14.10
2005,11,05,16,30,16.00
2005,11,05,16,31,15.40
2005,11,05,16,32,16.40
2005,11,05,16,33,17.70
2005,11,05,16,34,11.90
2005,11,05,16,35,12.10
2005,11,05,16,36,12.70
2005,11,05,16,37,17.50
2005,11,05,16,38,16.00
2005,11,05,16,39,20.40
2005,11,05,16,40,21.00
2005,11,05,16,41,22.70
2005,11,05,16,42,17.90
2005,11,05,16,43,16.30
2005,11,05,16,44,15.80
2005,11,05,16,45,18.70
2005,11,05,16,46,18.50
2005,11,05,16,47,19.80
2005,11,05,16,48,24.00
2005,11,05,16,49,20.40
2005,11,05,16,50,20.30
2005,11,05,16,51,15.20
2005,11,05,16,52,15.70
2005,11,05,16,53,12.90
2005,11,05,16,54,22.60
2005,11,05,16,55,17.40
2005,11,05,16,56,17.80
2005,11,05,16,57,19.80
2005,11,05,16,58,17.50
2005,11,05,16,59,17.50
2005,11,05,17,00,16.90
2005,11,05,17,01,18.30
2005,11,05,17,02,15.00
2005,11,05,17,03,18.30
2005,11,05,17,04,16.00
2005,11,05,17,05,15.00
2005,11,05,17,06,13.40
2005,11,05,17,07,17.20
2005,11,05,17,08,15.00
2005,11,05,17,09,15.40
2005,11,05,17,10,15.70
2005,11,05,17,11,20.00
2005,11,05,17,12,18.80
2005,11,05,17,13,13.40
2005,11,05,17,14,11.00
2005,11,05,17,15,10.20
2005,11,05,17,16,13.80
2005,11,05,17,17,15.80
2005,11,05,17,18,15.00
2005,11,05,17,19,11.70
2005,11,05,17,20,9.90
2005,11,05,17,21,9.00
2005,11,05,17,22,4.80
2005,11,05,17,23,11.10
2005,11,05,17,24,10.40
2005,11,05,17,25,8.70
2005,11,05,17,26,11.10
2005,11,05,17,27,9.00
2005,11,05,17,28,11.50
2005,11,05,17,29,6.80
2005,11,05,17,30,6.60
2005,11,05,17,31,10.70
2005,11,05,17,32,13.80
2005,11,05,17,33,11.60
2005,11,05,17,34,14.10
2005,11,05,17,35,13.30
2005,11,05,17,36,8.60
2005,11,05,17,37,12.50
2005,11,05,17,38,12.60
2005,11,05,17,39,11.60
2005,11,05,17,40,11.30
2005,11,05,17,41,7.40
2005,11,05,17,42,9.30
2005,11,05,17,43,10.20